Regional Weather Roundup
Issued by NWS

Home | Current Version | Previous Version | Text Only | Print | Product List | Glossary Off
Versions: 1 2 3 4 5 6 7 8 9 10 11 12 13 14 15 16 17 18 19 20 21 22 23 24 25 26 27 28 29 30 31 32 33 34 35 36 37 38 39 40 41 42 43 44 45 46 47 48 49 50

993
ASUS43 KDMX 082008
RWRIA

WEATHER ROUNDUP FOR IOWA
NATIONAL WEATHER SERVICE DES MOINES IA
200 PM CST MON FEB 08 2016

NOTE: "FAIR" INDICATES FEW OR NO CLOUDS BELOW 12,000 FEET WITH NO
SIGNIFICANT WEATHER AND/OR OBSTRUCTIONS TO VISIBILITY.

* - THESE STATIONS ARE NOT NWS STATIONS...THUS NOT UNDER NWS
QUALITY CONTROL.  THEY ALSO DO NOT REPORT WEATHER SUCH
AS PRECIPITATION OR FOG.

IAZ001>003-012>014-020>022-031>034-043>046-082100-
   NORTHWEST IOWA

CITY           SKY/WX    TMP DP  RH WIND       PRES   REMARKS
CARROLL *      FLURRIES  19  12  73 NW32G40   30.02S WCI   0
CHEROKEE *     MOSUNNY   19  14  79 N25G40    30.07R WCI   2
DENISON *      LGT SNOW  21  16  79 N16G32    30.04R WCI   7
LE MARS *      MIX PCPN  25  21  86 NW26      30.09S WCI   9
ORANGE CITY *    N/A     21 N/A N/A N21G26    30.05F WCI   6
SHELDON *      LGT SNOW  18  14  86 N26G36    30.04F VSB 1   WCI  -1
SIOUX CITY     PTSUNNY   28  17  63 N32G45    30.07F WCI  12
SPENCER        SNOW      16  10  77 NW32G39   30.03R VSB 1/2 WCI  -5
STORM LAKE *   CLOUDY    18  12  79 N37G48    30.02R WCI  -4
$$

IAZ055>058-069>071-079>083-090>094-082100-
   SOUTHWEST IOWA

CITY           SKY/WX    TMP DP  RH WIND       PRES   REMARKS
ATLANTIC *     PTSUNNY   23  16  74 N23G35    30.04F WCI   7
AUDUBON *      CLOUDY    21  12  68 NW25G35   30.03S WCI   4
CLARINDA *     CLOUDY    27  18  69 N28       30.07F WCI  11
COUNCIL BLFS * CLOUDY    27  18  69 NW23G33   30.06F WCI  12
CRESTON *      FLURRIES  21  12  68 NW33G41   30.00F WCI   2
HARLAN  *      FLURRIES  23  16  74 N28G35    30.08F WCI   6
LAMONI         LGT SNOW  22  13  68 N26G35    29.97F WCI   5
RED OAK *      CLOUDY    27  16  63 NW25G32   30.06F WCI  11
SHENANDOAH *   CLOUDY    28  19  69 N24G38    30.08F WCI  14
$$

IAZ047>049-059>061-072>074-084-082100-
   CENTRAL IOWA

CITY           SKY/WX    TMP DP  RH WIND       PRES   REMARKS
AMES           CLOUDY    18   9  68 NW29G36   29.97S BLWGSNOWWCI  -1
ANKENY *       PTSUNNY   19  10  68 NW20G26   29.98S WCI   4
BOONE *        LGT SNOW  18   9  68 NW21G33   29.95S WCI   1
CHARITON *     FLURRIES  19   9  63 NW32G40   29.95S WCI   0
DES MOINES     LGT SNOW  20   8  60 N28G37    29.97F BLWGSNOWWCI   2
GRINNELL*      LGT SNOW  16  10  79 NW28G37   29.91S WCI  -4
KNOXVILLE *    CLOUDY    19   9  63 NW29G35   29.93S WCI   1
MARSHALLTOWN   FLURRIES  16   9  74 NW23      29.92S WCI  -2
NEWTON *       LGT SNOW  18  10  73 NW32G39   29.94S WCI  -3
PELLA *        LGT SNOW  18  10  73 NW23G32   29.96R WCI   0
$$

IAZ004>006-015-016-023>025-035-036-082100-
   NORTH CENTRAL IOWA

CITY           SKY/WX    TMP DP  RH WIND       PRES   REMARKS
ALGONA *       LGT SNOW  16   9  73 NW33G44   29.97R WCI  -5
CLARION *      LGT SNOW  16   9  73 NW31      29.94F WCI  -5
ESTHERVILLE    LGT SNOW  15   9  76 NW31G44   30.00R WCI  -6
FORT DODGE *   CLOUDY    16   7  67 NW14G26   29.99S WCI   1
MASON CITY     LGT SNOW  15   9  76 NW29G36   29.92S WCI  -5
FOREST CITY *  PTSUNNY   16  10  79 NW28      29.92S HAZE    WCI  -4
WEBSTER CITY * LGT SNOW  16  10  79 NW32G41   29.94S WCI  -5
IOWA FALLS *   CLOUDY    16  11  78 NW29G35   29.93S WCI  -3
$$

IAZ007>011-017>019-026>030-037>042-050>054-066-082100-
   NORTHEAST IOWA

CITY           SKY/WX    TMP DP  RH WIND       PRES   REMARKS
CEDAR RAPIDS   LGT SNOW  17  12  80 NW23      29.85R WCI  -1
CHARLES CITY * LGT SNOW  14   9  79 NW28      29.87S WCI  -6
CLINTON *      FLURRIES  22  15  75 NW20      29.78S WCI   7
DECORAH *      CLOUDY    16   7  67 N18G29    29.81R WCI  -1
DUBUQUE        CLOUDY    20  12  71 NW17      29.76S WCI   5
MONTICELLO *   FLURRIES  19  12  73 NW22G28   29.81R WCI   3
OELWEIN *      PTSUNNY   16   9  73 NW25G32   29.85R HAZE    WCI  -3
WATERLOO       CLOUDY    15   8  73 NW25G32   29.88S WCI  -4
$$

IAZ064-065-067-068-078-082100-
   EAST CENTRAL IOWA

CITY           SKY/WX    TMP DP  RH WIND       PRES   REMARKS
DAVENPORT      FLURRIES  20  12  71 NW22      29.80S WCI   3
IOWA CITY      FLURRIES  19  10  68 NW20G31   29.88S WCI   3
MT. PLEASANT * FLURRIES  21  12  68 NW22G29   29.88R WCI   5
MUSCATINE *    FLURRIES  19  10  68 NW24      29.87R WCI   2
QUAD CITIES    LGT SNOW  21  13  71 NW22G28   29.81R WCI   5
$$

IAZ062-063-075>077-085>089-095>099-082100-
   SOUTHEAST IOWA

CITY           SKY/WX    TMP DP  RH WIND       PRES   REMARKS
BURLINGTON     LGT SNOW  20  12  71 NW16G30   29.85S WCI   6
FAIRFIELD *    FLURRIES  18   9  68 NW24G33   29.89R WCI   0
FORT MADISON * FLURRIES  19  12  73 W22G29    29.87S WCI   3
KEOKUK *       FLURRIES  21  12  68 NW17G24   29.89R WCI   7
OSKALOOSA *    LGT SNOW  18  12  79 NW24G37   29.92S WCI   0
CENTERVILLE *    N/A    N/A N/A N/A MISG        N/A
OTTUMWA        CLOUDY    18  11  74 NW28G36   29.92S WCI  -1
WASHINGTON *   CLOUDY    18  10  73 NW28G33   29.89S WCI  -1
$$

ABBREVIATIONS USED IN REMARKS
   TC - TEMPERATURES IN CELSIUS
  WCI - WIND CHILL INDEX
   HX - HEAT INDEX
  VSB - VISIBILITY
$$





USA.gov is the U.S. government's official web portal to all federal, state and local government web resources and services.